RYR159P EYVI-EDDB

Flight info

Callsign RYR159P
Flight time 1h 23m
Altitude 36000
Route UPASI DCT TUNGA DCT SUWGI DCT GRUDA DCT KELOD L979 GOVEN T205 NUKRO NUKRO1R
Aircraft B38M/M-SDE1FGHILORVWXY/HB1

Departure

Time 2026-05-05 17:33
Airport Vilnius International Airport (EYVI)

Arrival

Time 2026-05-05 18:56
Airport Berlin Brandenburg Airport (EDDB)
Time Latitude Longitude Altitude Speed Heading
2026-05-05 17:08 54.64242 25.28119 638 ft 0 kts 359°
2026-05-05 17:25 54.64224 25.28117 646 ft 4 kts
2026-05-05 17:25 54.64213 25.28119 642 ft 3 kts 345°
2026-05-05 17:25 54.64179 25.28137 639 ft 4 kts 341°
2026-05-05 17:25 54.64153 25.28151 639 ft 4 kts 344°
2026-05-05 17:26 54.64132 25.28160 641 ft 4 kts 348°
2026-05-05 17:26 54.64117 25.28166 642 ft 1 kts 348°
2026-05-05 17:28 54.64118 25.28165 642 ft 1 kts 348°
2026-05-05 17:28 54.64131 25.28160 641 ft 3 kts 348°
2026-05-05 17:28 54.64156 25.28169 640 ft 4 kts 33°
2026-05-05 17:29 54.64170 25.28219 640 ft 8 kts 76°
2026-05-05 17:29 54.64176 25.28332 642 ft 7 kts 130°
2026-05-05 17:29 54.64134 25.28347 642 ft 11 kts 157°
2026-05-05 17:29 54.64123 25.28474 644 ft 12 kts 90°
2026-05-05 17:30 54.64123 25.28609 647 ft 11 kts 88°
2026-05-05 17:30 54.64134 25.28741 650 ft 12 kts 65°
2026-05-05 17:30 54.64215 25.28825 653 ft 16 kts 23°
2026-05-05 17:30 54.64340 25.28913 656 ft 22 kts 22°
2026-05-05 17:31 54.64452 25.28993 659 ft 13 kts 22°
2026-05-05 17:31 54.64516 25.29074 659 ft 10 kts 92°
2026-05-05 17:31 54.64486 25.29184 658 ft 11 kts 117°
2026-05-05 17:31 54.64448 25.29284 658 ft 8 kts 157°
2026-05-05 17:32 54.64407 25.29266 658 ft 0 kts 202°
2026-05-05 17:32 54.64349 25.29226 658 ft 39 kts 201°
2026-05-05 17:32 54.63833 25.28870 641 ft 120 kts 202°
2026-05-05 17:32 54.62850 25.28190 754 ft 171 kts 201°
2026-05-05 17:33 54.61711 25.27381 1514 ft 182 kts 204°
2026-05-05 17:33 54.60514 25.26539 2368 ft 191 kts 204°
2026-05-05 17:33 54.59214 25.25616 2900 ft 213 kts 203°
2026-05-05 17:33 54.57777 25.24618 3521 ft 232 kts 203°
2026-05-05 17:34 54.56358 25.23190 4326 ft 242 kts 223°
2026-05-05 17:34 54.55519 25.20624 5111 ft 254 kts 259°
2026-05-05 17:34 54.55421 25.17579 6169 ft 255 kts 263°
2026-05-05 17:34 54.55198 25.14550 7141 ft 256 kts 260°
2026-05-05 17:35 54.54934 25.11488 8088 ft 259 kts 259°
2026-05-05 17:35 54.54650 25.08404 9030 ft 262 kts 259°
2026-05-05 17:35 54.54352 25.05285 9956 ft 265 kts 259°
2026-05-05 17:35 54.54041 25.02124 10530 ft 280 kts 259°
2026-05-05 17:36 54.53700 24.98702 10903 ft 300 kts 259°
2026-05-05 17:36 54.53303 24.95070 11357 ft 315 kts 253°
2026-05-05 17:36 54.52553 24.91482 12022 ft 322 kts 249°
2026-05-05 17:36 54.51761 24.87818 12867 ft 325 kts 249°
2026-05-05 17:37 54.50983 24.84206 13663 ft 329 kts 249°
2026-05-05 17:37 54.50444 24.81705 14119 ft 332 kts 249°
2026-05-05 17:37 54.49374 24.76740 15077 ft 336 kts 249°
2026-05-05 17:37 54.48555 24.72946 15799 ft 340 kts 249°
2026-05-05 17:38 54.47726 24.69110 16497 ft 344 kts 249°
2026-05-05 17:38 54.46888 24.65244 17193 ft 347 kts 249°
2026-05-05 17:38 54.46038 24.61327 17882 ft 351 kts 249°
2026-05-05 17:38 54.45180 24.57383 18488 ft 354 kts 249°
2026-05-05 17:39 54.44310 24.53392 19078 ft 357 kts 249°
2026-05-05 17:39 54.43430 24.49379 19656 ft 360 kts 249°
2026-05-05 17:39 54.42536 24.45327 20242 ft 363 kts 249°
2026-05-05 17:39 54.41637 24.41257 20823 ft 366 kts 249°
2026-05-05 17:40 54.40740 24.37203 21395 ft 369 kts 249°
2026-05-05 17:40 54.39822 24.33061 21943 ft 372 kts 249°
2026-05-05 17:40 54.38896 24.28893 22504 ft 375 kts 249°
2026-05-05 17:40 54.37961 24.24693 23045 ft 378 kts 249°
2026-05-05 17:41 54.37016 24.20459 23545 ft 382 kts 249°
2026-05-05 17:41 54.36062 24.16191 23999 ft 384 kts 249°
2026-05-05 17:41 54.35101 24.11900 24505 ft 385 kts 249°
2026-05-05 17:41 54.34139 24.07614 25008 ft 386 kts 249°
2026-05-05 17:42 54.33170 24.03305 25440 ft 389 kts 249°
2026-05-05 17:42 54.32193 23.98970 25888 ft 391 kts 249°
2026-05-05 17:42 54.31210 23.94619 26315 ft 393 kts 249°
2026-05-05 17:42 54.30218 23.90236 26734 ft 395 kts 249°
2026-05-05 17:43 54.29223 23.85846 27152 ft 397 kts 249°
2026-05-05 17:43 54.28218 23.81426 27567 ft 399 kts 248°
2026-05-05 17:43 54.27207 23.76986 27964 ft 401 kts 248°
2026-05-05 17:43 54.26202 23.72580 28350 ft 404 kts 248°
2026-05-05 17:44 54.25180 23.68114 28740 ft 405 kts 248°
2026-05-05 17:44 54.24148 23.63611 29137 ft 407 kts 248°
2026-05-05 17:44 54.23111 23.59094 29487 ft 410 kts 248°
2026-05-05 17:44 54.22066 23.54553 29849 ft 412 kts 248°
2026-05-05 17:45 54.21010 23.49976 30167 ft 414 kts 248°
2026-05-05 17:45 54.19948 23.45383 30480 ft 415 kts 248°
2026-05-05 17:45 54.18884 23.40785 30816 ft 417 kts 249°
2026-05-05 17:45 54.17829 23.36244 31186 ft 417 kts 248°
2026-05-05 17:46 54.16760 23.31647 31608 ft 415 kts 248°
2026-05-05 17:46 54.15694 23.27076 32048 ft 414 kts 248°
2026-05-05 17:46 54.14629 23.22519 32487 ft 412 kts 248°
2026-05-05 17:46 54.13570 23.17995 32933 ft 410 kts 248°
2026-05-05 17:47 54.12511 23.13480 33357 ft 409 kts 248°
2026-05-05 17:47 54.11454 23.08986 33778 ft 407 kts 248°
2026-05-05 17:47 54.10402 23.04518 34144 ft 406 kts 248°
2026-05-05 17:47 54.09347 23.00050 34434 ft 406 kts 248°
2026-05-05 17:48 54.08290 22.95580 34672 ft 407 kts 248°
2026-05-05 17:48 54.07236 22.91095 34877 ft 409 kts 250°
2026-05-05 17:48 54.06576 22.86426 35165 ft 409 kts 259°
2026-05-05 17:48 54.06030 22.81667 35403 ft 410 kts 258°
2026-05-05 17:49 54.05468 22.76906 35667 ft 410 kts 258°
2026-05-05 17:49 54.04913 22.72145 35859 ft 411 kts 258°
2026-05-05 17:49 54.04356 22.67372 35886 ft 411 kts 258°
2026-05-05 17:50 54.03253 22.57938 35872 ft 409 kts 258°
2026-05-05 17:50 54.02134 22.48445 35867 ft 409 kts 258°
2026-05-05 17:51 54.01009 22.38961 35872 ft 409 kts 258°
2026-05-05 17:51 53.99877 22.29485 35872 ft 409 kts 258°
2026-05-05 17:52 53.98736 22.20006 35877 ft 409 kts 258°
2026-05-05 17:52 53.97588 22.10528 35871 ft 409 kts 258°
2026-05-05 17:53 53.96435 22.01078 35880 ft 407 kts 258°
2026-05-05 17:53 53.95280 21.91686 35878 ft 406 kts 258°
2026-05-05 17:54 53.94119 21.82303 35878 ft 406 kts 258°
2026-05-05 17:54 53.92949 21.72915 35880 ft 406 kts 258°
2026-05-05 17:55 53.91972 21.65122 35884 ft 406 kts 258°
2026-05-05 17:55 53.90790 21.55749 35883 ft 406 kts 257°
2026-05-05 17:56 53.89600 21.46380 35884 ft 406 kts 257°
2026-05-05 17:56 53.88404 21.37024 35897 ft 405 kts 257°
2026-05-05 17:57 53.87204 21.27699 35863 ft 404 kts 258°
2026-05-05 17:57 53.86005 21.18443 35878 ft 402 kts 258°
2026-05-05 17:58 53.84799 21.09191 35882 ft 402 kts 258°
2026-05-05 17:58 53.83592 20.99993 35879 ft 402 kts 257°
2026-05-05 17:59 53.82373 20.90765 35875 ft 402 kts 257°
2026-05-05 17:59 53.81143 20.81516 35875 ft 402 kts 257°
2026-05-05 18:00 53.79911 20.72299 35872 ft 402 kts 257°
2026-05-05 18:00 53.78668 20.63066 35875 ft 402 kts 257°
2026-05-05 18:01 53.77426 20.53901 35875 ft 402 kts 257°
2026-05-05 18:01 53.76171 20.44695 35845 ft 402 kts 257°
2026-05-05 18:02 53.74901 20.35434 35887 ft 406 kts 257°
2026-05-05 18:02 53.73620 20.26149 35887 ft 406 kts 257°
2026-05-05 18:03 53.72330 20.16864 35904 ft 405 kts 257°
2026-05-05 18:03 53.71047 20.07677 35886 ft 403 kts 257°
2026-05-05 18:04 53.69750 19.98448 35887 ft 404 kts 257°
2026-05-05 18:04 53.68447 19.89235 35881 ft 404 kts 257°
2026-05-05 18:05 53.67135 19.80013 35884 ft 404 kts 257°
2026-05-05 18:05 53.65817 19.70810 35882 ft 404 kts 256°
2026-05-05 18:06 53.64501 19.61670 35875 ft 404 kts 256°
2026-05-05 18:06 53.63163 19.52428 35892 ft 407 kts 256°
2026-05-05 18:07 53.61813 19.43164 35879 ft 407 kts 256°
2026-05-05 18:07 53.60455 19.33898 35883 ft 407 kts 256°
2026-05-05 18:08 53.59091 19.24651 35875 ft 407 kts 256°
2026-05-05 18:08 53.57722 19.15409 35875 ft 407 kts 256°
2026-05-05 18:09 53.56347 19.06174 35878 ft 407 kts 256°
2026-05-05 18:09 53.54974 18.96996 35872 ft 407 kts 256°
2026-05-05 18:10 53.53589 18.87789 35877 ft 404 kts 256°
2026-05-05 18:10 53.52049 18.78719 35839 ft 404 kts 245°
2026-05-05 18:11 53.48954 18.70762 35850 ft 411 kts 238°
2026-05-05 18:11 53.45688 18.62883 35879 ft 411 kts 237°
2026-05-05 18:12 53.42387 18.55052 35874 ft 411 kts 237°
2026-05-05 18:12 53.39092 18.47274 35870 ft 411 kts 237°
2026-05-05 18:13 53.35777 18.39474 35871 ft 411 kts 237°
2026-05-05 18:13 53.32457 18.31687 35840 ft 411 kts 237°
2026-05-05 18:14 53.29112 18.23867 35868 ft 413 kts 237°
2026-05-05 18:14 53.25775 18.16089 35856 ft 410 kts 237°
2026-05-05 18:15 53.22448 18.08358 35857 ft 410 kts 237°
2026-05-05 18:15 53.19112 18.00628 35860 ft 410 kts 237°
2026-05-05 18:16 53.15773 17.92917 35852 ft 410 kts 237°
2026-05-05 18:16 53.12423 17.85202 35855 ft 412 kts 237°
2026-05-05 18:17 53.09083 17.77535 35852 ft 412 kts 236°
2026-05-05 18:17 53.05715 17.69827 35856 ft 412 kts 236°
2026-05-05 18:18 53.02344 17.62134 35853 ft 412 kts 236°
2026-05-05 18:18 52.98963 17.54444 35848 ft 412 kts 236°
2026-05-05 18:19 52.95578 17.46766 35861 ft 412 kts 236°
2026-05-05 18:19 52.92198 17.39125 35850 ft 412 kts 236°
2026-05-05 18:20 52.88795 17.31453 35852 ft 413 kts 236°
2026-05-05 18:20 52.85414 17.23854 35844 ft 413 kts 236°
2026-05-05 18:21 52.82005 17.16214 35840 ft 413 kts 236°
2026-05-05 18:21 52.78589 17.08583 35844 ft 413 kts 236°
2026-05-05 18:22 52.75170 17.00968 35825 ft 414 kts 235°
2026-05-05 18:22 52.71727 16.93321 35837 ft 415 kts 235°
2026-05-05 18:23 52.68279 16.85686 35836 ft 415 kts 235°
2026-05-05 18:23 52.64827 16.78068 35833 ft 415 kts 235°
2026-05-05 18:24 52.61373 16.70466 35840 ft 414 kts 235°
2026-05-05 18:24 52.57925 16.62900 35834 ft 413 kts 235°
2026-05-05 18:25 52.54466 16.55333 35829 ft 415 kts 235°
2026-05-05 18:25 52.50997 16.47767 35831 ft 415 kts 235°
2026-05-05 18:26 52.47543 16.40254 35828 ft 415 kts 235°
2026-05-05 18:26 52.45802 16.36477 35562 ft 414 kts 235°
2026-05-05 18:26 52.44042 16.32663 35113 ft 413 kts 235°
2026-05-05 18:26 52.42333 16.28966 34670 ft 413 kts 234°
2026-05-05 18:27 52.40592 16.25204 34205 ft 413 kts 234°
2026-05-05 18:27 52.38854 16.21455 33777 ft 414 kts 234°
2026-05-05 18:27 52.37108 16.17693 33272 ft 415 kts 234°
2026-05-05 18:27 52.35353 16.13918 32779 ft 416 kts 234°
2026-05-05 18:28 52.31833 16.06356 31767 ft 419 kts 234°
2026-05-05 18:28 52.30062 16.02561 31273 ft 421 kts 234°
2026-05-05 18:28 52.28283 15.98754 30798 ft 421 kts 234°
2026-05-05 18:29 52.26639 15.94804 30252 ft 420 kts 244°
2026-05-05 18:29 52.25669 15.90302 29654 ft 423 kts 256°
2026-05-05 18:29 52.25242 15.85590 29008 ft 427 kts 263°
2026-05-05 18:29 52.25001 15.80755 28367 ft 429 kts 264°
2026-05-05 18:30 52.24772 15.75884 27784 ft 429 kts 264°
2026-05-05 18:30 52.24555 15.71039 27218 ft 426 kts 264°
2026-05-05 18:30 52.24344 15.66231 26667 ft 423 kts 264°
2026-05-05 18:30 52.24135 15.61463 26126 ft 420 kts 264°
2026-05-05 18:31 52.23926 15.56722 25592 ft 417 kts 264°
2026-05-05 18:31 52.23716 15.52012 25063 ft 415 kts 264°
2026-05-05 18:31 52.23506 15.47333 24559 ft 412 kts 264°
2026-05-05 18:31 52.23296 15.42675 24053 ft 410 kts 264°
2026-05-05 18:32 52.23084 15.38043 23577 ft 408 kts 264°
2026-05-05 18:32 52.22874 15.33506 23045 ft 406 kts 264°
2026-05-05 18:32 52.22662 15.28932 22506 ft 403 kts 264°
2026-05-05 18:32 52.22449 15.24387 21950 ft 401 kts 264°
2026-05-05 18:33 52.22235 15.19875 21413 ft 398 kts 264°
2026-05-05 18:33 52.22021 15.15384 20883 ft 396 kts 264°
2026-05-05 18:33 52.21807 15.10920 20361 ft 394 kts 264°
2026-05-05 18:33 52.21592 15.06478 19846 ft 392 kts 264°
2026-05-05 18:34 52.21376 15.02054 19339 ft 390 kts 263°
2026-05-05 18:34 52.21160 14.97655 18838 ft 388 kts 263°
2026-05-05 18:34 52.20943 14.93283 18361 ft 386 kts 264°
2026-05-05 18:34 52.20726 14.88931 17830 ft 383 kts 264°
2026-05-05 18:35 52.20508 14.84610 17273 ft 380 kts 264°
2026-05-05 18:35 52.20290 14.80319 16729 ft 377 kts 264°
2026-05-05 18:35 52.20076 14.76130 16215 ft 375 kts 264°
2026-05-05 18:35 52.19859 14.71910 15702 ft 372 kts 264°
2026-05-05 18:36 52.19642 14.67725 15203 ft 369 kts 263°
2026-05-05 18:36 52.19426 14.63568 14726 ft 367 kts 263°
2026-05-05 18:36 52.19209 14.59446 14246 ft 364 kts 263°
2026-05-05 18:36 52.18994 14.55357 13923 ft 358 kts 263°
2026-05-05 18:37 52.18786 14.51398 13894 ft 343 kts 263°
2026-05-05 18:37 52.18587 14.47619 13886 ft 330 kts 263°
2026-05-05 18:37 52.18389 14.43903 13694 ft 328 kts 263°
2026-05-05 18:37 52.18190 14.40217 13409 ft 324 kts 263°
2026-05-05 18:38 52.17990 14.36562 13129 ft 324 kts 263°
2026-05-05 18:38 52.17790 14.32907 12830 ft 324 kts 263°
2026-05-05 18:38 52.17588 14.29258 12532 ft 323 kts 263°
2026-05-05 18:38 52.17386 14.25624 12237 ft 321 kts 263°
2026-05-05 18:39 52.17183 14.21998 11945 ft 320 kts 263°
2026-05-05 18:39 52.16980 14.18397 11650 ft 319 kts 263°
2026-05-05 18:39 52.16780 14.14849 11371 ft 318 kts 263°
2026-05-05 18:39 52.16577 14.11273 11115 ft 317 kts 263°
2026-05-05 18:40 52.16373 14.07699 10894 ft 317 kts 263°
2026-05-05 18:40 52.16167 14.04121 10649 ft 317 kts 263°
2026-05-05 18:40 52.15960 14.00549 10415 ft 316 kts 263°
2026-05-05 18:40 52.15753 13.96987 10180 ft 316 kts 263°
2026-05-05 18:41 52.15547 13.93449 9947 ft 311 kts 263°
2026-05-05 18:41 52.15344 13.89975 9722 ft 305 kts 263°
2026-05-05 18:41 52.15141 13.86540 9281 ft 306 kts 263°
2026-05-05 18:41 52.14936 13.83084 8764 ft 305 kts 264°
2026-05-05 18:42 52.14732 13.79659 8254 ft 301 kts 263°
2026-05-05 18:42 52.14532 13.76297 7761 ft 296 kts 263°
2026-05-05 18:42 52.14332 13.72978 7274 ft 293 kts 263°
2026-05-05 18:42 52.14133 13.69704 6793 ft 289 kts 263°
2026-05-05 18:43 52.13936 13.66451 6319 ft 287 kts 264°
2026-05-05 18:43 52.13740 13.63233 5816 ft 285 kts 264°
2026-05-05 18:43 52.13577 13.60035 5316 ft 283 kts 265°
2026-05-05 18:43 52.13471 13.57929 5086 ft 278 kts 265°
2026-05-05 18:44 52.13311 13.54840 5048 ft 272 kts 265°
2026-05-05 18:44 52.13154 13.51764 5014 ft 273 kts 265°
2026-05-05 18:44 52.12995 13.48691 4997 ft 272 kts 265°
2026-05-05 18:44 52.12787 13.44616 4985 ft 273 kts 265°
2026-05-05 18:45 52.12680 13.42534 4990 ft 273 kts 265°
2026-05-05 18:45 52.12521 13.39457 4990 ft 272 kts 265°
2026-05-05 18:45 52.12362 13.36417 4989 ft 274 kts 265°
2026-05-05 18:45 52.12197 13.33328 4986 ft 274 kts 265°
2026-05-05 18:46 52.12340 13.30277 4814 ft 271 kts 288°
2026-05-05 18:46 52.13269 13.27651 4545 ft 268 kts 311°
2026-05-05 18:46 52.14526 13.25496 4458 ft 257 kts 315°
2026-05-05 18:46 52.15744 13.23446 4364 ft 247 kts 315°
2026-05-05 18:47 52.16912 13.21472 4244 ft 239 kts 314°
2026-05-05 18:47 52.18058 13.19540 4023 ft 235 kts 315°
2026-05-05 18:47 52.19148 13.17657 4032 ft 221 kts 315°
2026-05-05 18:47 52.20194 13.15849 4014 ft 218 kts 315°
2026-05-05 18:48 52.21239 13.14072 3988 ft 217 kts 315°
2026-05-05 18:48 52.22280 13.12282 3984 ft 218 kts 315°
2026-05-05 18:48 52.23321 13.10478 3996 ft 218 kts 315°
2026-05-05 18:48 52.24364 13.08685 3988 ft 218 kts 315°
2026-05-05 18:49 52.25534 13.07165 3955 ft 214 kts 340°
2026-05-05 18:49 52.26973 13.06885 3947 ft 209 kts 12°
2026-05-05 18:49 52.28259 13.07899 3995 ft 207 kts 44°
2026-05-05 18:49 52.29018 13.09878 4002 ft 208 kts 75°
2026-05-05 18:50 52.29130 13.12232 4024 ft 209 kts 90°
2026-05-05 18:50 52.29191 13.14583 4003 ft 210 kts 84°
2026-05-05 18:50 52.29421 13.16889 3969 ft 200 kts 76°
2026-05-05 18:50 52.29798 13.19011 3861 ft 192 kts 71°
2026-05-05 18:51 52.30245 13.21046 3616 ft 188 kts 69°
2026-05-05 18:51 52.30712 13.23027 3388 ft 186 kts 69°
2026-05-05 18:51 52.31182 13.25000 3154 ft 184 kts 69°
2026-05-05 18:51 52.31632 13.26895 2921 ft 175 kts 69°
2026-05-05 18:52 52.32067 13.28719 2701 ft 170 kts 69°
2026-05-05 18:52 52.32492 13.30508 2460 ft 168 kts 69°
2026-05-05 18:52 52.32914 13.32288 2250 ft 168 kts 69°
2026-05-05 18:52 52.33337 13.34064 2026 ft 166 kts 68°
2026-05-05 18:53 52.33731 13.35725 1814 ft 150 kts 68°
2026-05-05 18:53 52.34091 13.37235 1646 ft 139 kts 69°
2026-05-05 18:53 52.34434 13.38685 1434 ft 135 kts 68°
2026-05-05 18:53 52.34776 13.40125 1270 ft 136 kts 68°
2026-05-05 18:54 52.35114 13.41576 1105 ft 137 kts 69°
2026-05-05 18:54 52.35455 13.43028 922 ft 137 kts 66°
2026-05-05 18:54 52.35817 13.44451 700 ft 134 kts 67°
2026-05-05 18:54 52.36153 13.45878 486 ft 134 kts 69°
2026-05-05 18:55 52.36486 13.47304 347 ft 136 kts 67°
2026-05-05 18:55 52.36828 13.48756 196 ft 137 kts 67°
2026-05-05 18:55 52.37145 13.50086 157 ft 109 kts 70°
2026-05-05 18:55 52.37365 13.51015 157 ft 59 kts 70°
2026-05-05 18:56 52.37449 13.51423 157 ft 25 kts 84°
2026-05-05 18:56 52.37449 13.51620 157 ft 14 kts 93°
2026-05-05 18:56 52.37434 13.51789 157 ft 15 kts 98°
2026-05-05 18:56 52.37417 13.51922 157 ft 11 kts 118°
2026-05-05 18:57 52.37354 13.51938 157 ft 11 kts 225°
2026-05-05 18:57 52.37318 13.51813 157 ft 13 kts 248°
2026-05-05 18:57 52.37282 13.51661 157 ft 16 kts 249°
2026-05-05 18:57 52.37264 13.51585 157 ft 0 kts 249°
2026-05-05 18:58 52.37249 13.51523 157 ft 12 kts 249°
2026-05-05 18:59 52.37207 13.51422 157 ft 9 kts 185°
2026-05-05 18:59 52.37140 13.51456 157 ft 11 kts 159°
2026-05-05 18:59 52.37060 13.51483 157 ft 12 kts 201°
2026-05-05 18:59 52.37018 13.51360 157 ft 14 kts 248°
2026-05-05 19:00 52.36980 13.51198 157 ft 16 kts 249°
2026-05-05 19:00 52.36938 13.51021 157 ft 18 kts 249°
2026-05-05 19:00 52.36895 13.50842 157 ft 14 kts 249°
2026-05-05 19:00 52.36866 13.50720 157 ft 6 kts 249°
2026-05-05 19:01 52.36854 13.50700 157 ft 2 kts 190°
2026-05-05 19:01 52.36819 13.50721 157 ft 6 kts 158°
2026-05-05 19:01 52.36797 13.50736 157 ft 3 kts 159°
2026-05-05 19:01 52.36789 13.50740 157 ft 0 kts 159°